TimeEDT,TemperatureF,Dew PointF,Humidity,Sea Level PressureIn,VisibilityMPH,Wind Direction,Wind SpeedMPH,Gust SpeedMPH,PrecipitationIn,Events,Conditions,WindDirDegrees,DateUTC
12:52 AM,60.1,46.0,60,29.88,10.0,SE,10.4,16.1,N/A,,Clear,130,2012-10-15 04:52:00
1:20 AM,62.6,46.4,55,29.86,10.0,SSW,16.1,26.5,N/A,,Clear,200,2012-10-15 05:20:00
1:52 AM,64.0,46.9,54,29.84,10.0,SW,17.3,34.5,N/A,,Clear,220,2012-10-15 05:52:00
2:52 AM,62.1,48.9,62,29.83,10.0,SSW,11.5,28.8,N/A,,Clear,200,2012-10-15 06:52:00
3:52 AM,63.0,50.0,63,29.80,10.0,SSW,10.4,18.4,N/A,,Clear,200,2012-10-15 07:52:00
4:52 AM,63.0,51.1,65,29.77,10.0,Calm,Calm,-,N/A,,Partly Cloudy,0,2012-10-15 08:52:00
5:52 AM,62.1,52.0,70,29.77,10.0,South,10.4,21.9,N/A,,Mostly Cloudy,190,2012-10-15 09:52:00
6:52 AM,63.0,52.0,67,29.76,10.0,South,6.9,21.9,N/A,,Overcast,190,2012-10-15 10:52:00
8:52 AM,63.0,54.0,72,29.74,10.0,SW,9.2,19.6,N/A,,Overcast,230,2012-10-15 12:52:00
9:52 AM,64.9,54.0,68,29.74,10.0,SW,11.5,21.9,N/A,,Overcast,230,2012-10-15 13:52:00
10:40 AM,66.2,53.6,64,29.72,10.0,SW,11.5,24.2,N/A,,Scattered Clouds,230,2012-10-15 14:40:00
10:52 AM,66.0,54.0,65,29.72,10.0,SSW,11.5,23.0,N/A,,Mostly Cloudy,200,2012-10-15 14:52:00
11:37 AM,68.0,53.6,60,29.71,10.0,SW,11.5,21.9,N/A,,Scattered Clouds,220,2012-10-15 15:37:00
11:52 AM,66.9,54.0,63,29.70,10.0,SSW,11.5,18.4,N/A,,Scattered Clouds,210,2012-10-15 15:52:00
12:52 PM,66.9,54.0,63,29.68,10.0,Variable,3.5,-,N/A,,Overcast,0,2012-10-15 16:52:00
1:52 PM,66.9,55.0,66,29.66,10.0,Variable,6.9,-,N/A,,Mostly Cloudy,0,2012-10-15 17:52:00
2:52 PM,64.9,55.9,73,29.65,4.0,SSW,10.4,-,0.01,Rain,Light Rain,200,2012-10-15 18:52:00
3:20 PM,62.6,59.0,88,29.64,2.5,NNW,3.5,-,0.05,Rain,Light Rain,330,2012-10-15 19:20:00
3:33 PM,62.6,60.8,94,29.64,4.0,NNW,5.8,-,0.07,Rain,Light Rain,340,2012-10-15 19:33:00
3:52 PM,62.1,59.0,90,29.64,2.0,Calm,Calm,-,0.11,Rain,Rain,0,2012-10-15 19:52:00
4:03 PM,62.6,60.8,94,29.63,5.0,Variable,3.5,-,0.00,Rain,Light Rain,0,2012-10-15 20:03:00
4:25 PM,62.6,60.8,94,29.62,4.0,Calm,Calm,-,0.01,Rain,Light Rain,0,2012-10-15 20:25:00
4:52 PM,62.1,60.1,93,29.63,3.0,Calm,Calm,-,0.04,Rain,Light Rain,0,2012-10-15 20:52:00
5:07 PM,62.6,60.8,94,29.62,3.0,ESE,3.5,-,0.01,Rain,Light Rain,120,2012-10-15 21:07:00
5:52 PM,61.0,59.0,93,29.63,7.0,Calm,Calm,-,0.03,Rain,Light Rain,0,2012-10-15 21:52:00
6:52 PM,59.0,57.0,93,29.62,6.0,Calm,Calm,-,0.01,Rain,Light Rain,0,2012-10-15 22:52:00
7:52 PM,57.0,55.9,96,29.64,5.0,Calm,Calm,-,0.02,Rain,Light Rain,0,2012-10-15 23:52:00
8:01 PM,57.2,57.2,100,29.64,6.0,West,6.9,-,0.00,Rain,Light Rain,280,2012-10-16 00:01:00
8:26 PM,57.2,53.6,88,29.64,10.0,SSW,5.8,-,0.01,,Overcast,210,2012-10-16 00:26:00
8:52 PM,55.9,54.0,93,29.64,10.0,Calm,Calm,-,0.01,,Overcast,0,2012-10-16 00:52:00
9:52 PM,55.0,54.0,96,29.65,9.0,Calm,Calm,-,N/A,,Overcast,0,2012-10-16 01:52:00
10:52 PM,55.9,48.0,75,29.68,10.0,West,9.2,17.3,N/A,,Overcast,270,2012-10-16 02:52:00